Regional Weather Roundup
Issued by NWS

Home | Current Version | Previous Version | Graphics & Text | Print | Product List | Glossary On
Versions: 1 2 3 4 5 6 7 8 9 10 11 12 13 14 15 16 17 18 19 20 21 22 23 24 25 26 27 28 29 30 31 32 33 34 35 36 37 38 39 40 41 42 43 44 45 46 47 48 49 50
278
ASUS43 KFSD 170502
RWRSD

WEATHER ROUNDUP FOR SOUTH DAKOTA
NATIONAL WEATHER SERVICE SIOUX FALLS SD
1100 PM CST SAT DEC 16 2017

NOTE: "FAIR" INDICATES FEW OR NO CLOUDS BELOW 12,000 FEET WITH NO
SIGNIFICANT WEATHER AND/OR OBSTRUCTIONS TO VISIBILITY.


SDZ001>005-009-010-012>017-170600-
NORTHWEST AND NORTH CENTRAL SOUTH DAKOTA

CITY           SKY/WX    TMP DP  RH WIND       PRES   REMARKS
BUFFALO          N/A     28  23  81 W6        30.00R WCI  22
FAITH            N/A     29  24  82 CALM      30.07R
MOBRIDGE       CLOUDY    31  26  82 N3        30.05S
$$

SDZ012>016-024>037-041>051-057-063-072>074-170600-
SOUTHWEST AND SOUTH CENTRAL SOUTH DAKOTA

CITY           SKY/WX    TMP DP  RH WIND       PRES   REMARKS
RAPID CTY ARPT CLOUDY    32  23  69 N5        30.06S WCI  27
PIERRE         CLOUDY    33  31  92 NW5       30.06F WCI  29
CUSTER         CLOUDY    23  18  81 NE6       29.96S WCI  16
ELLSWORTH AFB  CLOUDY    33  23  66 N6        30.04F WCI  27
PHILIP         CLOUDY    32  29  88 NW3       30.07S
PINE RIDGE     CLOUDY    30  25  81 NE3       30.03S
SPEARFISH      FAIR      28  28 100 CALM      30.05R
WINNER         CLOUDY    36  31  82 N6        30.05S
$$

SDZ004>011-016>023-039-040-170600-
NORTHEAST SOUTH DAKOTA

CITY           SKY/WX    TMP DP  RH WIND       PRES   REMARKS
ABERDEEN       CLOUDY    29  27  92 CALM      30.08S
WATERTOWN      MOCLDY    29  29 100 CALM      30.06R
BROOKINGS      CLOUDY    31  29  92 NE7       30.06S WCI  24
SISSETON         N/A     28  27  96 S3        30.08S
$$

SDZ017-020-022-023-036>040-048>070-170600-
SOUTHEAST SOUTH DAKOTA

CITY           SKY/WX    TMP DP  RH WIND       PRES   REMARKS
SIOUX FALLS    MOCLDY    28  27  96 N3        30.05R
HURON          CLOUDY    28  28 100 CALM      30.07F
CHAMBERLAIN    CLOUDY    35  33  92 N3        30.07S
MITCHELL       CLOUDY    31  30  96 N6        30.08R WCI  25
YANKTON        PTCLDY    31  27  85 NE6       30.05S WCI  25
$$

ABBREVIATIONS USED IN REMARKS
   TC - TEMPERATURE IN CELSIUS
  WCI - WIND CHILL INDEX
   HX - HEAT INDEX
  VSB - VISIBILITY





USA.gov is the U.S. government's official web portal to all federal, state and local government web resources and services.